| time (UTC) | temp F | wind direction | speed MPH | gust MPH | rain 1hr in | rain 24hr in | rain mn in | humidity % | barometer mb |
| 20260831043704 | 86 | 154 | 6.0 | 8.0 | 0.00 | 0.00 | 0.00 | 52 | 1015.1 |
| 20260831043203 | 86 | 145 | 4.0 | 9.0 | 0.00 | 0.00 | 0.00 | 51 | 1015.1 |
| 20260831040703 | 86 | 151 | 4.0 | 6.0 | 0.00 | 0.00 | 0.00 | 51 | 1015.1 |
| 20260831040204 | 86 | 123 | 3.0 | 8.0 | 0.00 | 0.00 | 0.00 | 51 | 1015.1 |
| 20260831033703 | 87 | 154 | 4.0 | 6.0 | 0.00 | 0.00 | 0.00 | 50 | 1015.0 |
| 20260831033204 | 87 | 153 | 5.0 | 9.0 | 0.00 | 0.00 | 0.00 | 50 | 1014.9 |
| 20260831030704 | 87 | 169 | 3.0 | 6.0 | 0.00 | 0.00 | 0.00 | 49 | 1014.7 |
| 20260831030204 | 88 | 147 | 3.0 | 6.0 | 0.00 | 0.00 | 0.00 | 48 | 1014.7 |
| 20260831023204 | 89 | 151 | 3.0 | 6.0 | 0.00 | 0.00 | 0.00 | 46 | 1014.1 |
| 20260831020703 | 90 | 158 | 1.0 | 3.0 | 0.00 | 0.00 | 0.00 | 44 | 1013.7 |
| 20260831020203 | 91 | 159 | 1.0 | 5.0 | 0.00 | 0.00 | 0.00 | 44 | 1013.8 |
| 20260831013204 | 92 | 161 | 2.0 | 7.0 | 0.00 | 0.00 | 0.00 | 41 | 1013.4 |
| 20260831010703 | 94 | 162 | 2.0 | 5.0 | 0.00 | 0.00 | 0.00 | 40 | 1013.3 |
| 20260831010204 | 94 | 165 | 3.0 | 10.0 | 0.00 | 0.00 | 0.00 | 40 | 1013.3 |
| 20260831003703 | 96 | 156 | 3.0 | 7.0 | 0.00 | 0.00 | 0.00 | 38 | 1013.1 |
| 20260831003203 | 96 | 163 | 4.0 | 12.0 | 0.00 | 0.00 | 0.00 | 37 | 1013.1 |
| 20260831000204 | 98 | 141 | 4.0 | 15.0 | 0.00 | 0.00 | 0.00 | 37 | 1013.1 |
| 20260830233704 | 99 | 141 | 6.0 | 14.0 | 0.00 | 0.00 | 0.00 | 36 | 1013.0 |
| 20260830233203 | 99 | 138 | 7.0 | 15.0 | 0.00 | 0.00 | 0.00 | 36 | 1013.0 |
| 20260830230203 | 100 | 161 | 6.0 | 16.0 | 0.00 | 0.00 | 0.00 | 36 | 1013.0 |
| 20260830223704 | 101 | 161 | 5.0 | 10.0 | 0.00 | 0.00 | 0.00 | 35 | 1012.9 |
| 20260830220704 | 101 | 156 | 5.0 | 16.0 | 0.00 | 0.00 | 0.00 | 33 | 1012.9 |
| 20260830213703 | 101 | 181 | 6.0 | 13.0 | 0.00 | 0.00 | 0.00 | 35 | 1013.2 |
| 20260830213203 | 101 | 155 | 7.0 | 14.0 | 0.00 | 0.00 | 0.00 | 34 | 1013.1 |
| 20260830210204 | 102 | 154 | 3.0 | 12.0 | 0.00 | 0.00 | 0.00 | 34 | 1013.5 |
| 20260830203203 | 101 | 166 | 6.0 | 14.0 | 0.00 | 0.00 | 0.00 | 33 | 1014.0 |
| 20260830200703 | 101 | 156 | 7.0 | 14.0 | 0.00 | 0.00 | 0.00 | 35 | 1014.5 |
| 20260830200203 | 101 | 176 | 4.0 | 12.0 | 0.00 | 0.00 | 0.00 | 35 | 1014.5 |
| 20260830193704 | 101 | 208 | 3.0 | 10.0 | 0.00 | 0.00 | 0.00 | 37 | 1014.6 |
| 20260830193203 | 101 | 172 | 6.0 | 16.0 | 0.00 | 0.00 | 0.00 | 37 | 1014.7 |
| 20260830190204 | 100 | 157 | 5.0 | 17.0 | 0.00 | 0.00 | 0.00 | 38 | 1014.9 |
| 20260830183704 | 100 | 168 | 5.0 | 13.0 | 0.00 | 0.00 | 0.00 | 38 | 1015.1 |
| 20260830183203 | 100 | 184 | 3.0 | 13.0 | 0.00 | 0.00 | 0.00 | 37 | 1015.2 |
| 20260830180204 | 99 | 157 | 6.0 | 20.0 | 0.00 | 0.00 | 0.00 | 38 | 1015.5 |
| 20260830173703 | 98 | 174 | 4.0 | 12.0 | 0.00 | 0.00 | 0.00 | 40 | 1015.9 |
| 20260830173204 | 99 | 192 | 3.0 | 15.0 | 0.00 | 0.00 | 0.00 | 42 | 1016.0 |
| 20260830170703 | 98 | 200 | 3.0 | 9.0 | 0.00 | 0.00 | 0.00 | 44 | 1016.3 |
| 20260830163203 | 96 | 164 | 5.0 | 16.0 | 0.00 | 0.00 | 0.00 | 45 | 1016.5 |
| 20260830160704 | 94 | 193 | 3.0 | 7.0 | 0.00 | 0.00 | 0.00 | 49 | 1016.7 |
| 20260830160203 | 94 | 194 | 1.0 | 12.0 | 0.00 | 0.00 | 0.00 | 51 | 1016.9 |
| 20260830153703 | 91 | 161 | 3.0 | 12.0 | 0.00 | 0.00 | 0.00 | 53 | 1016.9 |
| 20260830153204 | 90 | 154 | 6.0 | 12.0 | 0.00 | 0.00 | 0.00 | 53 | 1016.9 |
| 20260830150703 | 88 | 197 | 2.0 | 9.0 | 0.00 | 0.00 | 0.00 | 56 | 1017.0 |
| 20260830150203 | 87 | 173 | 2.0 | 9.0 | 0.00 | 0.00 | 0.00 | 57 | 1017.0 |
| 20260830143704 | 85 | 152 | 5.0 | 9.0 | 0.00 | 0.00 | 0.00 | 60 | 1017.3 |
| 20260830140703 | 82 | 152 | 3.0 | 9.0 | 0.00 | 0.00 | 0.00 | 63 | 1017.3 |
| 20260830140203 | 81 | 159 | 5.0 | 12.0 | 0.00 | 0.00 | 0.00 | 63 | 1017.3 |
| 20260830133703 | 80 | 164 | 5.0 | 9.0 | 0.00 | 0.00 | 0.00 | 65 | 1017.3 |
| 20260830133203 | 79 | 176 | 5.0 | 10.0 | 0.00 | 0.00 | 0.00 | 65 | 1017.2 |
| 20260830130705 | 78 | 154 | 5.0 | 9.0 | 0.00 | 0.00 | 0.00 | 66 | 1017.2 |
| 20260830130203 | 78 | 168 | 3.0 | 7.0 | 0.00 | 0.00 | 0.00 | 66 | 1017.2 |
| 20260830123703 | 77 | 138 | 3.0 | 5.0 | 0.00 | 0.00 | 0.00 | 66 | 1017.2 |
| 20260830123204 | 77 | 163 | 2.0 | 5.0 | 0.00 | 0.00 | 0.00 | 66 | 1017.2 |
| 20260830120703 | 78 | 154 | 3.0 | 5.0 | 0.00 | 0.00 | 0.00 | 64 | 1016.9 |
| 20260830120203 | 78 | 160 | 3.0 | 6.0 | 0.00 | 0.00 | 0.00 | 64 | 1016.7 |
| 20260830113704 | 79 | 152 | 5.0 | 6.0 | 0.00 | 0.00 | 0.00 | 63 | 1016.8 |
| 20260830113203 | 79 | 160 | 5.0 | 7.0 | 0.00 | 0.00 | 0.00 | 63 | 1016.8 |
| 20260830110703 | 79 | 147 | 2.0 | 5.0 | 0.00 | 0.00 | 0.00 | 62 | 1016.8 |
| 20260830103703 | 80 | 143 | 2.0 | 6.0 | 0.00 | 0.00 | 0.00 | 60 | 1016.5 |
| 20260830103203 | 80 | 135 | 3.0 | 8.0 | 0.00 | 0.00 | 0.00 | 60 | 1016.5 |
| 20260830100204 | 80 | 144 | 2.0 | 8.0 | 0.00 | 0.00 | 0.00 | 60 | 1016.3 |
| 20260830093704 | 80 | 138 | 3.0 | 7.0 | 0.00 | 0.00 | 0.00 | 59 | 1016.3 |
| 20260830093204 | 80 | 150 | 2.0 | 6.0 | 0.00 | 0.00 | 0.00 | 59 | 1016.3 |
| 20260830090704 | 80 | 155 | 3.0 | 6.0 | 0.00 | 0.00 | 0.00 | 58 | 1016.1 |
| 20260830090203 | 80 | 159 | 3.0 | 8.0 | 0.00 | 0.00 | 0.00 | 58 | 1016.0 |
| 20260830083704 | 81 | 148 | 3.0 | 6.0 | 0.00 | 0.00 | 0.00 | 57 | 1015.8 |
| 20260830083204 | 81 | 166 | 4.0 | 9.0 | 0.00 | 0.00 | 0.00 | 57 | 1015.8 |
| 20260830080704 | 82 | 154 | 5.0 | 9.0 | 0.00 | 0.00 | 0.00 | 56 | 1015.8 |
| 20260830080203 | 82 | 153 | 4.0 | 12.0 | 0.00 | 0.00 | 0.00 | 55 | 1015.8 |
| 20260830073704 | 82 | 151 | 4.0 | 9.0 | 0.00 | 0.00 | 0.00 | 54 | 1015.9 |
| 20260830073204 | 82 | 165 | 3.0 | 12.0 | 0.00 | 0.00 | 0.00 | 54 | 1015.9 |
| 20260830070703 | 83 | 166 | 3.0 | 10.0 | 0.00 | 0.00 | 0.00 | 54 | 1015.9 |
| 20260830070204 | 83 | 149 | 5.0 | 10.0 | 0.00 | 0.00 | 0.00 | 54 | 1015.9 |
| 20260830063704 | 83 | 165 | 4.0 | 7.0 | 0.00 | 0.00 | 0.00 | 54 | 1016.0 |
| 20260830063204 | 83 | 161 | 5.0 | 7.0 | 0.00 | 0.00 | 0.00 | 54 | 1016.0 |
| 20260830060704 | 83 | 162 | 3.0 | 8.0 | 0.00 | 0.00 | 0.00 | 54 | 1015.9 |
| 20260830060205 | 84 | 158 | 5.0 | 12.0 | 0.00 | 0.00 | 0.00 | 54 | 1015.9 |
| 20260830053204 | 84 | 151 | 5.0 | 9.0 | 0.00 | 0.00 | 0.00 | 54 | 1015.8 |
| 20260830050704 | 84 | 151 | 4.0 | 10.0 | 0.00 | 0.00 | 0.00 | 53 | 1016.0 |
| 20260830050203 | 84 | 153 | 4.0 | 9.0 | 0.00 | 0.00 | 0.00 | 54 | 1016.0 |